TIANMU-1 17

Last updated on Sat Aug 15 2026 00:02:41 GMT+0000 (Coordinated Universal Time)

1 58702U 24004C 26226.59065100 .00002948 00000+0 11310-3 0 9997 2 58702 97.4649 52.4985 0006416 138.6799 221.4926 15.27273356144686
UTC large
Height (km)
Speed (km/s)
/
Latitude / Longitude
Inclination (degrees)
Orbital Period (minutes)
Azimuth
Elevation
Range (km)
Doppler Factor

Next 0 passes for location: London (51.5072 / 0.1276)

No passes found over London.
TIANMU-1 17